This is the latest recevied weather packets stored in our database for station/object Kirchdorf. If no packets are shown the sender has not sent any weather packets the latest 10 day(s).
| Time | Temp. | Humidity | Pressure | Rain* | Wind** | Luminosity | Snow |
|---|---|---|---|---|---|---|---|
| 1788114730 | 23.89° C | 65% | 1014.8 hPa | 0 mm | - | - | - |
| 1788112931 | 25° C | 60% | 1014.8 hPa | 0 mm | - | - | - |
| 1788111130 | 25° C | 59% | 1014.6 hPa | 0 mm | - | - | - |
| 1788109331 | 25° C | 59% | 1014.7 hPa | 0 mm | - | - | - |
| 1788107531 | 25.56° C | 59% | 1014.7 hPa | 0 mm | - | - | - |
| 1788105731 | 26.11° C | 57% | 1014.8 hPa | 0 mm | - | - | - |
| 1788103931 | 25.56° C | 58% | 1014.8 hPa | 0 mm | - | - | - |
| 1788102130 | 26.11° C | 58% | 1015.1 hPa | 0 mm | - | - | - |
| 1788100330 | 26.11° C | 58% | 1015.2 hPa | 0 mm | - | - | - |
| 1788098531 | 26.11° C | 59% | 1015 hPa | 0 mm | - | - | - |
| 1788096730 | 26.67° C | 57% | 1015.1 hPa | 0 mm | - | - | - |
| 1788094931 | 26.11° C | 57% | 1015.6 hPa | 0 mm | - | - | - |
| 1788093130 | 25° C | 61% | 1015.8 hPa | 0 mm | - | - | - |
| 1788091330 | 25.56° C | 60% | 1015.8 hPa | 0 mm | - | - | - |
| 1788089530 | 25.56° C | 61% | 1015.9 hPa | 0 mm | - | - | - |
| 1788087732 | 25° C | 60% | 1016.3 hPa | 0 mm | - | - | - |
| 1788085930 | 24.44° C | 63% | 1016.5 hPa | 0 mm | - | - | - |
| 1788084129 | 23.89° C | 64% | 1016.6 hPa | 0 mm | - | - | - |
| 1788082330 | 22.78° C | 67% | 1016.9 hPa | 0 mm | - | - | - |
| 1788080530 | 23.33° C | 66% | 1016.9 hPa | 0 mm | - | - | - |
| 1788078729 | 22.78° C | 67% | 1016.9 hPa | 0 mm | - | - | - |
| 1788076929 | 22.22° C | 67% | 1016.9 hPa | 0 mm | - | - | - |
| 1788075130 | 21.11° C | 69% | 1017 hPa | 0 mm | - | - | - |
| 1788073329 | 20° C | 73% | 1017 hPa | 0 mm | - | - | - |
| 1788071530 | 18.89° C | 79% | 1017 hPa | 0 mm | - | - | - |
* Rain since midnight (hover to see other rain measurements)
** Current wind speed in m/s (hover to see current wind gust speed)